,,,PA_Meas_PMT16A,,PR_Meas_QMR101_102,,RH_Meas_QMH101,,SR_Meas_QMS101,,TA_Meas_QMH101,,GenWind,,GenWind,
date,time,status,PA,status,PR,status,RH,status,SR,status,TA,status,DirAvg,status,SpdAvg,
2011-11-16, 00:00:04,VALID,1010.438,VALID,0.0,VALID,60.747,VALID,1010.803,VALID,30.909,VALID,237.0,VALID,1.733,
2011-11-16, 00:01:04,VALID,1010.402,VALID,0.0,VALID,59.527,VALID,620.428,VALID,31.065,VALID,221.0,VALID,1.596,
2011-11-16, 00:02:04,VALID,1010.438,VALID,0.0,VALID,60.327,VALID,999.367,VALID,31.202,VALID,298.0,VALID,0.986,
2011-11-16, 00:03:04,VALID,1010.426,VALID,0.0,VALID,57.574,VALID,857.321,VALID,31.375,VALID,213.0,VALID,1.232,
2011-11-16, 00:04:04,VALID,1010.427,VALID,0.0,VALID,57.735,VALID,527.599,VALID,31.534,VALID,287.0,VALID,1.22,
2011-11-16, 00:05:04,VALID,1010.455,VALID,0.0,VALID,58.329,VALID,425.241,VALID,31.551,VALID,183.0,VALID,0.614,
2011-11-16, 00:06:04,VALID,1010.462,VALID,0.0,VALID,59.153,VALID,513.361,VALID,31.553,VALID,199.0,VALID,1.13,
2011-11-16, 00:07:04,VALID,1010.441,VALID,0.0,VALID,57.018,VALID,381.63,VALID,31.3,VALID,220.0,VALID,1.957,
2011-11-16, 00:08:04,VALID,1010.457,VALID,0.0,VALID,58.612,VALID,1047.575,VALID,31.261,VALID,265.0,VALID,0.65,
2011-11-16, 00:09:04,VALID,1010.443,VALID,0.0,VALID,58.383,VALID,423.111,VALID,31.3,VALID,223.0,VALID,1.142,
2011-11-16, 00:10:04,VALID,1010.452,VALID,0.0,VALID,60.655,VALID,526.03,VALID,31.163,VALID,220.0,VALID,1.379,
2011-11-16, 00:11:04,VALID,1010.389,VALID,0.0,VALID,59.092,VALID,653.277,VALID,30.987,VALID,231.0,VALID,1.652,
2011-11-16, 00:12:04,VALID,1010.413,VALID,0.0,VALID,60.358,VALID,351.584,VALID,31.026,VALID,296.0,VALID,1.531,
2011-11-16, 00:13:04,VALID,1010.431,VALID,0.0,VALID,59.366,VALID,558.094,VALID,31.121,VALID,287.0,VALID,1.378,
2011-11-16, 00:14:04,VALID,1010.429,VALID,0.0,VALID,58.162,VALID,522.554,VALID,31.141,VALID,275.0,VALID,1.113,
2011-11-16, 00:15:04,VALID,1010.405,VALID,0.0,VALID,60.793,VALID,329.834,VALID,31.082,VALID,218.0,VALID,1.177,
2011-11-16, 00:16:04,VALID,1010.413,VALID,0.0,VALID,61.761,VALID,953.513,VALID,31.063,VALID,257.0,VALID,0.844,
2011-11-16, 00:17:04,VALID,1010.365,VALID,0.0,VALID,59.572,VALID,1032.216,VALID,31.258,VALID,236.0,VALID,1.15,
2011-11-16, 00:18:04,VALID,1010.392,VALID,0.0,VALID,57.513,VALID,1067.083,VALID,31.492,VALID,270.0,VALID,1.029,
2011-11-16, 00:19:04,VALID,1010.324,VALID,0.0,VALID,57.948,VALID,1071.792,VALID,31.646,VALID,259.0,VALID,1.794,
2011-11-16, 00:20:04,VALID,1010.315,VALID,0.0,VALID,56.652,VALID,1080.2,VALID,31.727,VALID,246.0,VALID,1.845,
2011-11-16, 00:21:04,VALID,1010.297,VALID,0.0,VALID,56.4,VALID,1085.693,VALID,31.903,VALID,273.0,VALID,1.212,
2011-11-16, 00:22:04,VALID,1010.275,VALID,0.0,VALID,55.508,VALID,406.406,VALID,32.059,VALID,252.0,VALID,1.6,
2011-11-16, 00:23:04,VALID,1010.244,VALID,0.0,VALID,55.76,VALID,301.582,VALID,31.922,VALID,281.0,VALID,1.945,
2011-11-16, 00:24:04,VALID,1010.246,VALID,0.0,VALID,56.392,VALID,284.54,VALID,31.705,VALID,225.0,VALID,0.78,
2011-11-16, 00:25:04,VALID,1010.235,VALID,0.0,VALID,56.758,VALID,324.901,VALID,31.668,VALID,255.0,VALID,0.619,
2011-11-16, 00:26:04,VALID,1010.195,VALID,0.0,VALID,58.36,VALID,1125.718,VALID,31.629,VALID,287.0,VALID,0.98,
2011-11-16, 00:27:04,VALID,1010.158,VALID,0.0,VALID,56.614,VALID,1148.813,VALID,31.668,VALID,248.0,VALID,1.235,
2011-11-16, 00:28:04,VALID,1010.143,VALID,0.0,VALID,55.508,VALID,791.848,VALID,31.768,VALID,263.0,VALID,2.309,
2011-11-16, 00:29:04,VALID,1010.122,VALID,0.0,VALID,56.324,VALID,1132.893,VALID,31.807,VALID,252.0,VALID,1.6,
2011-11-16, 00:30:04,VALID,1010.13,VALID,0.0,VALID,58.093,VALID,312.681,VALID,31.925,VALID,218.0,VALID,1.99,
2011-11-16, 00:31:04,VALID,1010.137,VALID,0.0,VALID,56.362,VALID,995.107,VALID,31.925,VALID,345.0,VALID,0.424,
2011-11-16, 00:32:04,VALID,1010.129,VALID,0.0,VALID,57.33,VALID,991.295,VALID,31.964,VALID,244.0,VALID,0.865,
2011-11-16, 00:33:04,VALID,1010.107,VALID,0.0,VALID,58.688,VALID,1062.486,VALID,32.081,VALID,237.0,VALID,0.871,
2011-11-16, 00:34:04,VALID,1010.097,VALID,0.0,VALID,56.606,VALID,1031.319,VALID,32.237,VALID,226.0,VALID,1.769,
2011-11-16, 00:35:04,VALID,1010.095,VALID,0.0,VALID,56.896,VALID,1021.453,VALID,32.276,VALID,245.0,VALID,1.016,
2011-11-16, 00:36:04,VALID,1010.069,VALID,0.0,VALID,53.075,VALID,1016.072,VALID,32.335,VALID,213.0,VALID,1.666,
2011-11-16, 00:37:04,VALID,1010.104,VALID,0.0,VALID,53.35,VALID,1026.947,VALID,32.374,VALID,220.0,VALID,1.786,
2011-11-16, 00:38:04,VALID,1010.031,VALID,0.0,VALID,55.355,VALID,1028.628,VALID,32.354,VALID,200.0,VALID,1.298,
2011-11-16, 00:39:04,VALID,1009.99,VALID,0.0,VALID,54.272,VALID,1039.391,VALID,32.354,VALID,213.0,VALID,1.694,
2011-11-16, 00:40:04,VALID,1009.997,VALID,0.0,VALID,56.004,VALID,1037.373,VALID,32.374,VALID,208.0,VALID,1.961,
2011-11-16, 00:41:04,VALID,1009.974,VALID,0.0,VALID,56.438,VALID,1038.494,VALID,32.02,VALID,203.0,VALID,3.098,
2011-11-16, 00:42:04,VALID,1009.964,VALID,0.0,VALID,56.004,VALID,1036.925,VALID,31.925,VALID,206.0,VALID,2.591,
2011-11-16, 00:43:04,VALID,1009.961,VALID,0.0,VALID,58.322,VALID,1047.912,VALID,31.864,VALID,256.0,VALID,1.616,
2011-11-16, 00:44:04,VALID,1009.97,VALID,0.0,VALID,58.337,VALID,1050.714,VALID,32.117,VALID,283.0,VALID,1.193,
2011-11-16, 00:45:04,VALID,1009.923,VALID,0.0,VALID,55.241,VALID,1040.624,VALID,32.332,VALID,312.0,VALID,3.434,
2011-11-16, 00:46:04,VALID,1010.006,VALID,0.0,VALID,57.086,VALID,1051.275,VALID,32.156,VALID,208.0,VALID,2.141,
2011-11-16, 00:47:04,VALID,1009.986,VALID,0.0,VALID,59.397,VALID,1041.97,VALID,31.844,VALID,199.0,VALID,1.237,
2011-11-16, 00:48:04,VALID,1010.006,VALID,0.0,VALID,61.791,VALID,1049.369,VALID,31.883,VALID,242.0,VALID,2.105,
2011-11-16, 00:49:04,VALID,1010.012,VALID,0.0,VALID,57.513,VALID,253.485,VALID,32.056,VALID,289.0,VALID,1.124,
2011-11-16, 00:50:04,VALID,1010.033,VALID,0.0,VALID,57.735,VALID,1026.947,VALID,32.176,VALID,294.0,VALID,1.116,
2011-11-16, 00:51:04,VALID,1010.028,VALID,0.0,VALID,54.7,VALID,1022.574,VALID,32.235,VALID,293.0,VALID,2.382,
2011-11-16, 00:52:04,VALID,1010.02,VALID,0.0,VALID,55.256,VALID,1027.732,VALID,32.235,VALID,214.0,VALID,0.978,
2011-11-16, 00:53:04,VALID,1010.03,VALID,0.0,VALID,57.605,VALID,1037.037,VALID,32.293,VALID,300.0,VALID,1.272,
2011-11-16, 00:54:04,VALID,1009.988,VALID,0.0,VALID,56.629,VALID,1036.588,VALID,32.508,VALID,291.0,VALID,0.241,
2011-11-16, 00:55:04,VALID,1010.037,VALID,0.0,VALID,53.274,VALID,1029.974,VALID,32.586,VALID,206.0,VALID,1.853,
2011-11-16, 00:56:04,VALID,1010.069,VALID,0.0,VALID,53.884,VALID,1020.781,VALID,32.606,VALID,220.0,VALID,1.866,
2011-11-16, 00:57:04,VALID,1010.062,VALID,0.0,VALID,55.432,VALID,997.798,VALID,32.313,VALID,208.0,VALID,2.354,
2011-11-16, 00:58:04,VALID,1010.035,VALID,0.0,VALID,54.509,VALID,1029.525,VALID,32.371,VALID,298.0,VALID,1.843,
2011-11-16, 00:59:04,VALID,1010.065,VALID,0.0,VALID,54.639,VALID,1080.424,VALID,32.43,VALID,298.0,VALID,1.579,
2011-11-16, 01:00:04,VALID,1010.042,VALID,0.0,VALID,54.372,VALID,1113.161,VALID,32.449,VALID,305.0,VALID,2.96,
2011-11-16, 01:01:04,VALID,1010.039,VALID,0.0,VALID,55.043,VALID,1144.889,VALID,32.449,VALID,314.0,VALID,1.517,
2011-11-16, 01:02:04,VALID,1010.003,VALID,0.0,VALID,54.776,VALID,397.774,VALID,32.371,VALID,282.0,VALID,2.788,
2011-11-16, 01:03:04,VALID,1010.005,VALID,0.0,VALID,56.492,VALID,416.945,VALID,32.12,VALID,222.0,VALID,1.178,
2011-11-16, 01:04:04,VALID,1010.004,VALID,0.0,VALID,56.865,VALID,1025.041,VALID,32.078,VALID,255.0,VALID,1.663,
2011-11-16, 01:05:04,VALID,1009.968,VALID,0.0,VALID,57.803,VALID,322.546,VALID,32.017,VALID,273.0,VALID,1.165,
2011-11-16, 01:06:04,VALID,1009.964,VALID,0.0,VALID,56.27,VALID,300.46,VALID,31.9,VALID,277.0,VALID,2.006,
2011-11-16, 01:07:04,VALID,1009.896,VALID,0.0,VALID,56.53,VALID,283.083,VALID,31.746,VALID,239.0,VALID,1.91,
2011-11-16, 01:08:04,VALID,1009.905,VALID,0.0,VALID,58.268,VALID,296.2,VALID,31.492,VALID,326.0,VALID,0.754,
2011-11-16, 01:09:04,VALID,1009.841,VALID,0.0,VALID,58.368,VALID,361.786,VALID,31.453,VALID,290.0,VALID,1.78,
2011-11-16, 01:10:04,VALID,1009.844,VALID,0.0,VALID,59.321,VALID,1206.999,VALID,31.356,VALID,204.0,VALID,2.037,
2011-11-16, 01:11:04,VALID,1009.824,VALID,0.0,VALID,60.526,VALID,1192.648,VALID,31.395,VALID,244.0,VALID,1.074,
2011-11-16, 01:12:04,VALID,1009.82,VALID,0.0,VALID,59.778,VALID,1201.729,VALID,31.649,VALID,288.0,VALID,1.594,
2011-11-16, 01:13:04,VALID,1009.801,VALID,0.0,VALID,60.396,VALID,1211.371,VALID,31.824,VALID,235.0,VALID,1.961,
2011-11-16, 01:14:05,VALID,1009.8,VALID,0.0,VALID,62.501,VALID,1211.82,VALID,32.12,VALID,333.0,VALID,1.375,
2011-11-16, 01:15:05,VALID,1009.832,VALID,0.0,VALID,60.724,VALID,1204.757,VALID,32.276,VALID,298.0,VALID,2.588,
2011-11-16, 01:16:05,VALID,1009.794,VALID,0.0,VALID,59.786,VALID,1184.016,VALID,32.276,VALID,279.0,VALID,1.391,
2011-11-16, 01:17:05,VALID,1009.766,VALID,0.0,VALID,59.496,VALID,1170.002,VALID,32.354,VALID,311.0,VALID,2.238,
2011-11-16, 01:18:05,VALID,1009.771,VALID,0.0,VALID,58.055,VALID,1161.033,VALID,32.296,VALID,301.0,VALID,2.395,
2011-11-16, 01:19:05,VALID,1009.763,VALID,0.0,VALID,57.727,VALID,1170.45,VALID,31.964,VALID,274.0,VALID,2.297,
2011-11-16, 01:20:05,VALID,1009.771,VALID,0.0,VALID,58.276,VALID,1209.353,VALID,31.983,VALID,207.0,VALID,0.968,
2011-11-16, 01:21:05,VALID,1009.775,VALID,0.0,VALID,59.206,VALID,513.361,VALID,32.159,VALID,274.0,VALID,2.023,
2011-11-16, 01:22:05,VALID,1009.789,VALID,0.0,VALID,58.497,VALID,833.441,VALID,32.196,VALID,249.0,VALID,2.125,
2011-11-16, 01:23:05,VALID,1009.698,VALID,0.0,VALID,57.231,VALID,831.423,VALID,31.964,VALID,234.0,VALID,1.734,
2011-11-16, 01:24:05,VALID,1009.77,VALID,0.0,VALID,59.489,VALID,1054.638,VALID,31.827,VALID,283.0,VALID,0.486,
2011-11-16, 01:25:05,VALID,1009.712,VALID,0.0,VALID,56.171,VALID,1283.123,VALID,31.749,VALID,249.0,VALID,1.615,
2011-11-16, 01:26:05,VALID,1009.802,VALID,0.0,VALID,57.605,VALID,1176.504,VALID,31.729,VALID,252.0,VALID,1.824,
2011-11-16, 01:27:05,VALID,1009.749,VALID,0.0,VALID,55.874,VALID,1240.072,VALID,31.632,VALID,277.0,VALID,1.398,
2011-11-16, 01:28:05,VALID,1009.715,VALID,0.0,VALID,55.813,VALID,1265.297,VALID,31.456,VALID,284.0,VALID,2.759,
2011-11-16, 01:29:05,VALID,1009.697,VALID,0.0,VALID,57.75,VALID,757.205,VALID,31.182,VALID,276.0,VALID,2.588,
2011-11-16, 01:30:05,VALID,1009.71,VALID,0.0,VALID,58.909,VALID,1287.832,VALID,31.124,VALID,295.0,VALID,2.27,
2011-11-16, 01:31:05,VALID,1009.686,VALID,0.0,VALID,58.764,VALID,1309.469,VALID,31.124,VALID,318.0,VALID,2.47,
2011-11-16, 01:32:05,VALID,1009.722,VALID,0.0,VALID,58.589,VALID,1346.018,VALID,31.043,VALID,293.0,VALID,2.336,
2011-11-16, 01:33:05,VALID,1009.706,VALID,0.0,VALID,59.916,VALID,947.347,VALID,31.026,VALID,276.0,VALID,2.084,
2011-11-16, 01:34:05,VALID,1009.692,VALID,0.0,VALID,59.321,VALID,949.477,VALID,31.065,VALID,293.0,VALID,2.271,
2011-11-16, 01:35:05,VALID,1009.617,VALID,0.0,VALID,58.345,VALID,652.044,VALID,31.221,VALID,220.0,VALID,2.193,
2011-11-16, 01:36:05,VALID,1009.64,VALID,0.0,VALID,56.438,VALID,1213.838,VALID,31.241,VALID,235.0,VALID,2.228,
2011-11-16, 01:37:05,VALID,1009.622,VALID,0.0,VALID,57.239,VALID,1357.005,VALID,31.278,VALID,227.0,VALID,1.584,
2011-11-16, 01:38:05,VALID,1009.57,VALID,0.0,VALID,54.921,VALID,1366.198,VALID,31.358,VALID,225.0,VALID,2.914,
2011-11-16, 01:39:05,VALID,1009.583,VALID,0.0,VALID,55.523,VALID,1018.09,VALID,31.551,VALID,262.0,VALID,1.48,
2011-11-16, 01:40:05,VALID,1009.55,VALID,0.0,VALID,56.072,VALID,556.749,VALID,31.69,VALID,231.0,VALID,2.053,
2011-11-16, 01:41:05,VALID,1009.518,VALID,0.0,VALID,52.381,VALID,930.53,VALID,31.632,VALID,229.0,VALID,2.21,
2011-11-16, 01:42:05,VALID,1009.532,VALID,0.0,VALID,54.745,VALID,786.242,VALID,31.495,VALID,234.0,VALID,2.237,
2011-11-16, 01:43:05,VALID,1009.5,VALID,0.0,VALID,54.089,VALID,807.656,VALID,31.514,VALID,221.0,VALID,1.747,
2011-11-16, 01:44:05,VALID,1009.377,VALID,0.0,VALID,53.007,VALID,815.279,VALID,31.378,VALID,229.0,VALID,2.32,
2011-11-16, 01:45:05,VALID,1009.499,VALID,0.0,VALID,56.309,VALID,1306.106,VALID,31.317,VALID,285.0,VALID,1.016,
2011-11-16, 01:46:05,VALID,1009.408,VALID,0.0,VALID,53.784,VALID,1213.838,VALID,31.671,VALID,344.0,VALID,1.191,
2011-11-16, 01:47:05,VALID,1009.364,VALID,0.0,VALID,53.464,VALID,1256.216,VALID,31.944,VALID,233.0,VALID,2.73,
2011-11-16, 01:48:05,VALID,1009.377,VALID,0.0,VALID,54.524,VALID,1229.309,VALID,32.098,VALID,257.0,VALID,1.614,
2011-11-16, 01:49:05,VALID,1009.28,VALID,0.0,VALID,51.565,VALID,1207.447,VALID,32.215,VALID,233.0,VALID,1.927,
2011-11-16, 01:50:05,VALID,1009.292,VALID,0.0,VALID,51.901,VALID,1181.549,VALID,32.293,VALID,231.0,VALID,1.889,
2011-11-16, 01:51:05,VALID,1009.319,VALID,0.0,VALID,52.694,VALID,812.14,VALID,32.352,VALID,245.0,VALID,0.766,
2011-11-16, 01:52:05,VALID,1009.29,VALID,0.0,VALID,51.161,VALID,548.564,VALID,32.469,VALID,215.0,VALID,1.486,
2011-11-16, 01:53:05,VALID,1009.341,VALID,0.0,VALID,52.282,VALID,684.22,VALID,32.449,VALID,266.0,VALID,1.002,
2011-11-16, 01:54:05,VALID,1009.3,VALID,0.0,VALID,54.6,VALID,747.676,VALID,32.352,VALID,329.0,VALID,1.468,
2011-11-16, 01:55:05,VALID,1009.282,VALID,0.0,VALID,55.782,VALID,695.431,VALID,32.313,VALID,297.0,VALID,0.864,
2011-11-16, 01:56:05,VALID,1009.255,VALID,0.0,VALID,56.926,VALID,586.01,VALID,32.354,VALID,281.0,VALID,1.687,
2011-11-16, 01:57:05,VALID,1009.26,VALID,0.0,VALID,54.272,VALID,1162.154,VALID,32.41,VALID,245.0,VALID,1.152,
2011-11-16, 01:58:05,VALID,1009.245,VALID,0.0,VALID,54.631,VALID,1118.094,VALID,32.491,VALID,268.0,VALID,2.478,
2011-11-16, 01:59:05,VALID,1009.245,VALID,0.0,VALID,54.494,VALID,1101.95,VALID,32.41,VALID,279.0,VALID,2.066,
2011-11-16, 02:00:05,VALID,1009.209,VALID,0.0,VALID,53.64,VALID,1073.137,VALID,32.432,VALID,291.0,VALID,1.151,
2011-11-16, 02:01:05,VALID,1009.212,VALID,0.0,VALID,53.296,VALID,1080.536,VALID,32.511,VALID,268.0,VALID,1.649,
2011-11-16, 02:02:05,VALID,1009.206,VALID,0.0,VALID,54.593,VALID,881.649,VALID,32.391,VALID,313.0,VALID,1.063,
2011-11-16, 02:03:05,VALID,1009.165,VALID,0.0,VALID,55.34,VALID,1045.109,VALID,32.315,VALID,241.0,VALID,1.807,
2011-11-16, 02:04:05,VALID,1009.138,VALID,0.0,VALID,55.95,VALID,1060.356,VALID,32.178,VALID,317.0,VALID,2.159,
2011-11-16, 02:05:05,VALID,1009.092,VALID,0.0,VALID,56.217,VALID,1054.078,VALID,32.022,VALID,249.0,VALID,1.967,
2011-11-16, 02:06:05,VALID,1009.097,VALID,0.0,VALID,55.226,VALID,1058.002,VALID,32.003,VALID,254.0,VALID,1.704,
2011-11-16, 02:07:05,VALID,1009.063,VALID,0.0,VALID,56.141,VALID,1033.449,VALID,31.866,VALID,289.0,VALID,1.923,
2011-11-16, 02:08:05,VALID,1008.991,VALID,0.0,VALID,57.849,VALID,1007.215,VALID,31.866,VALID,199.0,VALID,1.477,
2011-11-16, 02:09:05,VALID,1008.984,VALID,0.0,VALID,59.176,VALID,1004.412,VALID,32.022,VALID,265.0,VALID,0.907,
2011-11-16, 02:10:05,VALID,1008.947,VALID,0.0,VALID,54.791,VALID,993.986,VALID,32.176,VALID,299.0,VALID,2.396,
2011-11-16, 02:11:05,VALID,1008.842,VALID,0.0,VALID,55.012,VALID,990.847,VALID,32.159,VALID,325.0,VALID,1.826,
2011-11-16, 02:12:05,VALID,1008.832,VALID,0.0,VALID,57.361,VALID,992.865,VALID,32.1,VALID,310.0,VALID,1.735,
2011-11-16, 02:13:05,VALID,1008.78,VALID,0.0,VALID,55.485,VALID,984.568,VALID,32.042,VALID,264.0,VALID,2.698,
2011-11-16, 02:14:05,VALID,1008.779,VALID,0.0,VALID,56.415,VALID,987.483,VALID,32.039,VALID,284.0,VALID,1.978,
2011-11-16, 02:15:05,VALID,1008.751,VALID,0.0,VALID,55.821,VALID,985.914,VALID,32.042,VALID,230.0,VALID,2.438,
2011-11-16, 02:16:05,VALID,1008.744,VALID,0.0,VALID,56.415,VALID,986.699,VALID,32.022,VALID,256.0,VALID,1.783,
2011-11-16, 02:17:05,VALID,1008.754,VALID,0.0,VALID,56.438,VALID,989.389,VALID,31.961,VALID,228.0,VALID,1.586,
2011-11-16, 02:18:05,VALID,1008.742,VALID,0.0,VALID,56.72,VALID,990.286,VALID,32.042,VALID,218.0,VALID,1.779,
2011-11-16, 02:19:05,VALID,1008.73,VALID,0.0,VALID,58.268,VALID,991.407,VALID,32.1,VALID,258.0,VALID,1.663,
2011-11-16, 02:20:05,VALID,1008.745,VALID,0.0,VALID,58.772,VALID,994.995,VALID,32.176,VALID,278.0,VALID,1.623,
2011-11-16, 02:21:05,VALID,1008.748,VALID,0.0,VALID,55.958,VALID,1003.74,VALID,32.237,VALID,315.0,VALID,2.4,
2011-11-16, 02:22:05,VALID,1008.713,VALID,0.0,VALID,56.499,VALID,585.449,VALID,32.218,VALID,279.0,VALID,1.041,
2011-11-16, 02:23:05,VALID,1008.757,VALID,0.0,VALID,55.874,VALID,1022.35,VALID,32.335,VALID,262.0,VALID,2.214,
2011-11-16, 02:24:05,VALID,1008.704,VALID,0.0,VALID,57.925,VALID,1013.83,VALID,32.254,VALID,291.0,VALID,1.683,
2011-11-16, 02:25:05,VALID,1008.691,VALID,0.0,VALID,56.758,VALID,1011.475,VALID,32.137,VALID,300.0,VALID,1.862,
2011-11-16, 02:26:05,VALID,1008.698,VALID,0.0,VALID,56.728,VALID,1009.345,VALID,32.081,VALID,279.0,VALID,3.652,
2011-11-16, 02:27:05,VALID,1008.701,VALID,0.0,VALID,58.223,VALID,1025.826,VALID,31.905,VALID,276.0,VALID,2.118,
2011-11-16, 02:28:05,VALID,1008.671,VALID,0.0,VALID,58.993,VALID,1024.256,VALID,31.942,VALID,260.0,VALID,0.954,
2011-11-16, 02:29:05,VALID,1008.673,VALID,0.0,VALID,59.229,VALID,1026.386,VALID,32.1,VALID,298.0,VALID,0.852,
2011-11-16, 02:30:05,VALID,1008.66,VALID,0.0,VALID,56.438,VALID,1031.768,VALID,32.296,VALID,236.0,VALID,1.967,
2011-11-16, 02:31:05,VALID,1008.641,VALID,0.0,VALID,56.087,VALID,1042.194,VALID,32.198,VALID,302.0,VALID,2.0,
2011-11-16, 02:32:05,VALID,1008.602,VALID,0.0,VALID,57.239,VALID,1051.724,VALID,32.137,VALID,265.0,VALID,1.193,
2011-11-16, 02:33:05,VALID,1008.647,VALID,0.0,VALID,57.376,VALID,1073.698,VALID,32.276,VALID,276.0,VALID,2.452,
2011-11-16, 02:34:05,VALID,1008.613,VALID,0.0,VALID,56.987,VALID,1098.026,VALID,32.218,VALID,288.0,VALID,1.892,
2011-11-16, 02:35:05,VALID,1008.616,VALID,0.0,VALID,58.108,VALID,1145.001,VALID,32.276,VALID,306.0,VALID,1.472,
2011-11-16, 02:36:05,VALID,1008.595,VALID,0.0,VALID,59.366,VALID,325.125,VALID,32.276,VALID,240.0,VALID,1.852,
2011-11-16, 02:37:05,VALID,1008.573,VALID,0.0,VALID,58.627,VALID,345.417,VALID,32.081,VALID,307.0,VALID,2.111,
2011-11-16, 02:38:05,VALID,1008.551,VALID,0.0,VALID,58.307,VALID,298.442,VALID,31.925,VALID,289.0,VALID,2.059,
2011-11-16, 02:39:05,VALID,1008.58,VALID,0.0,VALID,59.427,VALID,310.214,VALID,31.824,VALID,324.0,VALID,1.266,
2011-11-16, 02:40:05,VALID,1008.55,VALID,0.0,VALID,58.436,VALID,1113.385,VALID,31.668,VALID,302.0,VALID,2.108,
2011-11-16, 02:41:05,VALID,1008.503,VALID,0.0,VALID,58.802,VALID,487.463,VALID,31.534,VALID,284.0,VALID,1.898,
2011-11-16, 02:42:05,VALID,1008.46,VALID,0.0,VALID,61.319,VALID,363.243,VALID,31.356,VALID,265.0,VALID,0.707,
2011-11-16, 02:43:05,VALID,1008.464,VALID,0.0,VALID,61.387,VALID,731.083,VALID,31.397,VALID,226.0,VALID,0.775,
2011-11-16, 02:44:05,VALID,1008.396,VALID,0.0,VALID,62.447,VALID,800.929,VALID,31.436,VALID,277.0,VALID,1.218,
2011-11-16, 02:45:05,VALID,1008.39,VALID,0.0,VALID,59.87,VALID,690.386,VALID,31.551,VALID,259.0,VALID,2.012,
2011-11-16, 02:46:05,VALID,1008.383,VALID,0.0,VALID,58.878,VALID,575.135,VALID,31.571,VALID,256.0,VALID,1.881,
2011-11-16, 02:47:05,VALID,1008.381,VALID,0.0,VALID,60.365,VALID,413.806,VALID,31.651,VALID,292.0,VALID,1.004,
2011-11-16, 02:48:05,VALID,1008.353,VALID,0.0,VALID,59.42,VALID,542.286,VALID,31.807,VALID,258.0,VALID,1.391,
2011-11-16, 02:49:05,VALID,1008.361,VALID,0.0,VALID,57.971,VALID,500.244,VALID,31.964,VALID,289.0,VALID,0.594,
2011-11-16, 02:50:05,VALID,1008.282,VALID,0.0,VALID,57.696,VALID,455.063,VALID,31.944,VALID,290.0,VALID,1.587,
2011-11-16, 02:51:05,VALID,1008.304,VALID,0.0,VALID,57.056,VALID,503.72,VALID,31.846,VALID,257.0,VALID,1.158,
2011-11-16, 02:52:05,VALID,1008.261,VALID,0.0,VALID,58.451,VALID,563.139,VALID,31.768,VALID,297.0,VALID,0.764,
2011-11-16, 02:53:05,VALID,1008.197,VALID,0.0,VALID,57.239,VALID,510.671,VALID,31.788,VALID,236.0,VALID,1.287,
2011-11-16, 02:54:05,VALID,1008.171,VALID,0.0,VALID,58.787,VALID,487.463,VALID,31.727,VALID,262.0,VALID,1.153,
2011-11-16, 02:55:05,VALID,1008.09,VALID,0.0,VALID,57.727,VALID,439.816,VALID,31.71,VALID,267.0,VALID,2.289,
2011-11-16, 02:56:05,VALID,1008.138,VALID,0.0,VALID,58.886,VALID,376.024,VALID,31.573,VALID,274.0,VALID,2.147,
2011-11-16, 02:57:05,VALID,1008.114,VALID,0.0,VALID,59.039,VALID,328.825,VALID,31.492,VALID,294.0,VALID,0.697,
2011-11-16, 02:58:05,VALID,1008.055,VALID,0.0,VALID,58.779,VALID,295.415,VALID,31.319,VALID,262.0,VALID,2.066,
2011-11-16, 02:59:05,VALID,1008.038,VALID,0.0,VALID,59.931,VALID,268.172,VALID,31.143,VALID,309.0,VALID,1.661,
2011-11-16, 03:00:05,VALID,1008.033,VALID,0.0,VALID,61.631,VALID,260.1,VALID,31.026,VALID,320.0,VALID,1.38,
2011-11-16, 03:01:05,VALID,1008.008,VALID,0.0,VALID,61.227,VALID,261.67,VALID,30.948,VALID,331.0,VALID,1.054,
2011-11-16, 03:02:05,VALID,1007.993,VALID,0.0,VALID,60.976,VALID,262.679,VALID,30.85,VALID,308.0,VALID,1.461,
2011-11-16, 03:03:05,VALID,1007.976,VALID,0.0,VALID,62.318,VALID,259.091,VALID,30.772,VALID,313.0,VALID,1.462,
2011-11-16, 03:04:05,VALID,1008.011,VALID,0.0,VALID,62.836,VALID,255.503,VALID,30.733,VALID,251.0,VALID,0.651,
2011-11-16, 03:05:05,VALID,1007.938,VALID,0.0,VALID,62.348,VALID,249.786,VALID,30.692,VALID,292.0,VALID,1.209,
2011-11-16, 03:06:05,VALID,1007.89,VALID,0.0,VALID,62.31,VALID,234.763,VALID,30.694,VALID,321.0,VALID,1.465,
2011-11-16, 03:07:05,VALID,1007.877,VALID,0.0,VALID,62.341,VALID,223.776,VALID,30.614,VALID,272.0,VALID,1.032,
2011-11-16, 03:08:05,VALID,1007.846,VALID,0.0,VALID,62.668,VALID,228.26,VALID,30.616,VALID,303.0,VALID,1.152,
2011-11-16, 03:09:05,VALID,1007.818,VALID,0.0,VALID,63.759,VALID,244.629,VALID,30.577,VALID,289.0,VALID,1.932,
2011-11-16, 03:10:05,VALID,1007.76,VALID,0.0,VALID,63.736,VALID,255.055,VALID,30.538,VALID,296.0,VALID,2.221,
2011-11-16, 03:11:05,VALID,1007.761,VALID,0.0,VALID,63.911,VALID,263.463,VALID,30.499,VALID,249.0,VALID,1.969,
2011-11-16, 03:12:05,VALID,1007.75,VALID,0.0,VALID,64.209,VALID,257.858,VALID,30.499,VALID,284.0,VALID,0.771,
2011-11-16, 03:13:05,VALID,1007.745,VALID,0.0,VALID,63.317,VALID,245.638,VALID,30.438,VALID,299.0,VALID,2.072,
2011-11-16, 03:14:05,VALID,1007.725,VALID,0.0,VALID,63.721,VALID,243.507,VALID,30.382,VALID,186.0,VALID,1.1,
2011-11-16, 03:15:05,VALID,1007.751,VALID,0.0,VALID,63.957,VALID,261.221,VALID,30.382,VALID,280.0,VALID,2.075,
2011-11-16, 03:16:05,VALID,1007.748,VALID,0.0,VALID,64.003,VALID,289.361,VALID,30.282,VALID,283.0,VALID,2.147,
2011-11-16, 03:17:05,VALID,1007.746,VALID,0.0,VALID,65.231,VALID,307.972,VALID,30.304,VALID,278.0,VALID,0.591,
2011-11-16, 03:18:05,VALID,1007.752,VALID,0.0,VALID,63.362,VALID,328.937,VALID,30.343,VALID,314.0,VALID,2.059,
2011-11-16, 03:19:05,VALID,1007.708,VALID,0.0,VALID,64.171,VALID,290.37,VALID,30.343,VALID,312.0,VALID,2.554,
2011-11-16, 03:20:05,VALID,1007.736,VALID,0.0,VALID,64.872,VALID,351.584,VALID,30.321,VALID,39.0,VALID,0.704,
2011-11-16, 03:21:05,VALID,1007.756,VALID,0.0,VALID,66.291,VALID,442.17,VALID,30.399,VALID,260.0,VALID,1.075,
2011-11-16, 03:22:05,VALID,1007.755,VALID,0.0,VALID,64.316,VALID,468.292,VALID,30.497,VALID,293.0,VALID,1.391,
2011-11-16, 03:23:05,VALID,1007.785,VALID,0.0,VALID,65.063,VALID,450.578,VALID,30.536,VALID,158.0,VALID,0.567,
2011-11-16, 03:24:05,VALID,1007.813,VALID,0.0,VALID,64.102,VALID,482.867,VALID,30.614,VALID,260.0,VALID,1.912,
2011-11-16, 03:25:05,VALID,1007.773,VALID,0.0,VALID,63.332,VALID,480.512,VALID,30.633,VALID,304.0,VALID,0.859,
2011-11-16, 03:26:05,VALID,1007.798,VALID,0.0,VALID,62.806,VALID,723.235,VALID,30.751,VALID,302.0,VALID,1.69,
2011-11-16, 03:27:05,VALID,1007.806,VALID,0.0,VALID,63.111,VALID,889.497,VALID,30.868,VALID,301.0,VALID,1.029,
2011-11-16, 03:28:05,VALID,1007.804,VALID,0.0,VALID,62.47,VALID,1034.122,VALID,31.102,VALID,300.0,VALID,1.586,
2011-11-16, 03:29:05,VALID,1007.759,VALID,0.0,VALID,61.395,VALID,482.979,VALID,31.317,VALID,265.0,VALID,1.637,
2011-11-16, 03:30:05,VALID,1007.678,VALID,0.0,VALID,60.221,VALID,501.253,VALID,31.28,VALID,268.0,VALID,2.05,
2011-11-16, 03:31:05,VALID,1007.678,VALID,0.0,VALID,63.622,VALID,1134.238,VALID,31.261,VALID,293.0,VALID,0.972,